Regional Weather Roundup
Issued by NWS Mt. Holly, NJ

Home | Current Version | Previous Version | Text Only | Print | Product List | Glossary On
Versions: 1 2 3 4 5 6 7 8 9 10 11 12 13 14 15 16 17 18 19 20 21 22 23 24 25 26 27 28 29 30 31 32 33 34 35 36 37 38 39 40 41 42 43 44 45 46 47 48 49 50
000
ASUS41 KPHI 291112
RWRPHI

REGIONAL WEATHER ROUNDUP
NATIONAL WEATHER SERVICE MOUNT HOLLY NJ
700 AM EDT THU JUN 29 2017

NOTE:  "FAIR" INDICATES FEW OR NO CLOUDS BELOW 12,000 FEET WITH NO
SIGNIFICANT WEATHER AND/OR OBSTRUCTIONS TO VISIBILITY.

 * = STATION DOES NOT REPORT PRECIPITATION (E.G. RAIN, SNOW, ETC.)
        OR FOG.

NJZ015>026-291200-
SOUTHERN NEW JERSEY

CITY           SKY/WX    TMP DP  RH WIND       PRES   REMARKS
POMONA         MOSUNNY   66  56  70 S7        30.19S
WILDWOOD*      CLOUDY    69  58  67 S9        30.20S
MILLVILLE      CLOUDY    68  64  87 VRB3      30.18S
WRIGHTSTOWN    CLOUDY    64  60  85 CALM      30.15S
MOUNT HOLLY    MOSUNNY   64  61  90 VRB3      30.17S
TRENTON        CLOUDY    66  60  81 S5        30.17R

$$
NJZ001>014-291200-
NORTHERN NEW JERSEY

CITY           SKY/WX    TMP DP  RH WIND       PRES   REMARKS
SUSSEX         MOSUNNY   57  56  96 CALM      30.16R
ANDOVER*         N/A     61  57  87 CALM      30.16R
MORRISTOWN       N/A     57  55  94 SW6       30.17R
NEWARK         PTSUNNY   68  58  70 SW8       30.16R
TETERBORO      MOSUNNY   65  58  78 S3        30.15S
CALDWELL       CLOUDY    65  55  70 CALM      30.17R
SOMERVILLE     CLOUDY    60  57  89 NW3       30.15S
ALLAIRE*       SUNNY     64  58  80 S6        30.19S
TOMS RIVER*    MOSUNNY   64  59  83 SW6       30.19S

$$
PAZ043-044-047-054-055-060>062-066>071-291200-
EASTERN PENNSYLVANIA

CITY           SKY/WX    TMP DP  RH WIND       PRES   REMARKS
PHILADELPHIA   CLOUDY    67  59  75 S10G18    30.17S
NORTH PHILA    CLOUDY    70  59  68 SW8       30.18S
BLUE BELL*     CLOUDY    64  59  82 S5        30.18S
DOYLESTOWN     CLOUDY    65  58  78 S3        30.16R
QUAKERTOWN*    CLOUDY    64  57  77 CALM      30.17S
PERKASIE*      FAIR      63  59  88 CALM      30.17S
POTTSTOWN      CLOUDY    65  60  84 CALM      30.17R
LANCASTER      MOSUNNY   63  58  83 SE3       30.15R
COATESVILLE    CLOUDY    64  57  77 CALM      30.17F
READING        PTSUNNY   67  59  75 SW5       30.14R
ALLENTOWN      CLOUDY    67  56  67 CALM      30.15S
MOUNT POCONO   CLOUDY    61  53  75 SW5       30.17S
HAZLETON         N/A     61  52  72 S3        30.19S
LEHIGHTON      FAIR      55  55 100 CALM      30.16F
WILKES BARRE   CLOUDY    64  54  69 CALM      30.13F

$$
DEZALL-MDZ008-012-015-019-020-291200-
DELAWARE AND EASTERN MARYLAND

CITY           SKY/WX    TMP DP  RH WIND       PRES   REMARKS
WILMINGTON     CLOUDY    65  59  81 S7        30.17S
DOVER          CLOUDY    65  65 100 S6        30.17S
GEORGETOWN     CLOUDY    65  59  81 S6        30.20R
EASTON         PTSUNNY   70  63  78 S7        30.21S
ABERDEEN       PTSUNNY   65  59  83 SW6       30.16S
PATUXENT       PTSUNNY   68  63  84 SW10      30.18R
OCEAN CITY     MOSUNNY   61  59  93 CALM      30.21R
WALLOPS ISLAND CLOUDY    66  66 100 S5        30.21R
CAMBRIDGE      SUNNY     66  63  88 SE3       30.19R
SALISBURY      PTSUNNY   63  60  90 S3        30.20R

$$
PAZ001-021-NYZ056-072-MDZ011-DCZ001-291200-
OTHER NEARBY LOCATIONS

CITY           SKY/WX    TMP DP  RH WIND       PRES   REMARKS
HARRISBURG     MOSUNNY   67  56  67 VRB3      30.13S
STATE COLLEGE  MOSUNNY   59  55  88 CALM      30.12S
WILLIAMSPORT   CLOUDY    62  56  80 CALM      30.10S
BINGHAMTON     CLOUDY    60  50  69 S5        30.11F
NEW YORK CITY  MOSUNNY   68  58  70 VRB5      30.19R
BALTIMORE      PTSUNNY   65  59  81 S6        30.15S
WASHINGTON DC  PTSUNNY   68  61  78 S10       30.17S

$$



USA.gov is the U.S. government's official web portal to all federal, state and local government web resources and services.